QTR41F LEMD-OTHH

Flight info

Callsign QTR41F
Flight time 6h 11m
Altitude 32000
Route NANDO M871 LASPO Z224 NINES/N0487F330 DCT OLMIR DCT XARON DCT GENIO DCT LUXUR UM134 ANB UA411 MORJA DCT SONAK DCT DINUX DCT AGARI DCT ARLOS DCT SALUN N705 MMA P751 DASUM Y234 FYM M872 LUBOS/N0486F350 M872 BDB Y214 RAPMA/N0511F290 Y214 ASPUS Y432 LADBO T142 LAEEB
Aircraft B77L/H-SDE1E2E3FGHIJ2J3J4J5M1RWXY/LB1D1

Departure

Time 2026-05-04 16:11
Airport Adolfo Suárez Madrid–Barajas Airport (LEMD)

Arrival

Time 2026-05-04 22:22
Airport Hamad International Airport (OTHH)
Time Latitude Longitude Altitude Speed Heading
2026-05-04 15:48 40.46038 -3.56316 1975 ft 0 kts
2026-05-04 16:00 40.46027 -3.56316 1975 ft 2 kts 358°
2026-05-04 16:00 40.46010 -3.56316 1972 ft 2 kts 356°
2026-05-04 16:01 40.45994 -3.56314 1975 ft 2 kts 352°
2026-05-04 16:01 40.45977 -3.56310 1973 ft 2 kts 340°
2026-05-04 16:01 40.45963 -3.56299 1974 ft 2 kts 295°
2026-05-04 16:01 40.45960 -3.56283 1970 ft 1 kts 270°
2026-05-04 16:02 40.45960 -3.56281 1971 ft 0 kts 270°
2026-05-04 16:03 40.45959 -3.56349 1974 ft 10 kts 269°
2026-05-04 16:03 40.45959 -3.56450 1977 ft 12 kts 272°
2026-05-04 16:04 40.46021 -3.56522 1977 ft 14 kts 355°
2026-05-04 16:04 40.46230 -3.56511 1978 ft 15 kts
2026-05-04 16:04 40.46338 -3.56500 1977 ft 15 kts
2026-05-04 16:05 40.46445 -3.56491 1976 ft 15 kts
2026-05-04 16:05 40.46552 -3.56483 1981 ft 15 kts
2026-05-04 16:05 40.46791 -3.56465 1980 ft 23 kts
2026-05-04 16:06 40.46948 -3.56453 1983 ft 23 kts
2026-05-04 16:06 40.47365 -3.56726 1992 ft 26 kts 322°
2026-05-04 16:07 40.47556 -3.56921 1997 ft 26 kts 322°
2026-05-04 16:07 40.47982 -3.57356 2004 ft 26 kts 322°
2026-05-04 16:08 40.48125 -3.57501 2003 ft 26 kts 322°
2026-05-04 16:08 40.48451 -3.57667 1999 ft 12 kts 60°
2026-05-04 16:09 40.48414 -3.57525 2000 ft 13 kts 139°
2026-05-04 16:09 40.47637 -3.56735 2000 ft 125 kts 142°
2026-05-04 16:10 40.45733 -3.54806 2057 ft 218 kts 148°
2026-05-04 16:11 40.42773 -3.50584 3778 ft 219 kts 133°
2026-05-04 16:11 40.41651 -3.49187 3936 ft 228 kts 142°
2026-05-04 16:12 40.37804 -3.44464 5054 ft 261 kts 140°
2026-05-04 16:12 40.33829 -3.39518 6837 ft 267 kts 140°
2026-05-04 16:13 40.31095 -3.36121 7906 ft 274 kts 140°
2026-05-04 16:13 40.28307 -3.32660 9020 ft 280 kts 140°
2026-05-04 16:14 40.25464 -3.29143 10158 ft 283 kts 140°
2026-05-04 16:14 40.23279 -3.25854 10839 ft 296 kts 113°
2026-05-04 16:15 40.21560 -3.17968 12469 ft 307 kts 108°
2026-05-04 16:16 40.20380 -3.12535 13639 ft 315 kts 108°
2026-05-04 16:16 40.18524 -3.04143 15239 ft 324 kts 109°
2026-05-04 16:17 40.17220 -2.98305 15829 ft 352 kts 109°
2026-05-04 16:18 40.14991 -2.88355 16287 ft 408 kts 109°
2026-05-04 16:18 40.14177 -2.84718 16513 ft 424 kts 108°
2026-05-04 16:19 40.11620 -2.73311 18142 ft 444 kts 109°
2026-05-04 16:19 40.09875 -2.65567 19311 ft 449 kts 109°
2026-05-04 16:20 40.07182 -2.53677 20948 ft 460 kts 109°
2026-05-04 16:20 40.05346 -2.45612 22008 ft 467 kts 109°
2026-05-04 16:21 40.02524 -2.33270 23526 ft 479 kts 110°
2026-05-04 16:22 40.00599 -2.24881 24364 ft 485 kts 110°
2026-05-04 16:22 39.97665 -2.12172 25587 ft 494 kts 110°
2026-05-04 16:23 39.94637 -1.99176 26785 ft 504 kts 111°
2026-05-04 16:24 39.90502 -1.81509 28302 ft 515 kts 111°
2026-05-04 16:25 39.88396 -1.72559 29005 ft 519 kts 111°
2026-05-04 16:26 39.84126 -1.54513 30452 ft 522 kts 111°
2026-05-04 16:26 39.80901 -1.40993 31513 ft 520 kts 112°
2026-05-04 16:27 39.78418 -1.32224 31910 ft 511 kts 127°
2026-05-04 16:28 39.70567 -1.23995 31966 ft 473 kts 164°
2026-05-04 16:29 39.51312 -1.07322 31940 ft 513 kts 124°
2026-05-04 16:31 39.42712 -0.87024 31899 ft 513 kts 125°
2026-05-04 16:32 39.32146 -0.63071 31897 ft 511 kts 125°
2026-05-04 16:33 39.26439 -0.46126 31886 ft 523 kts 109°
2026-05-04 16:34 39.23677 -0.32463 31890 ft 525 kts 109°
2026-05-04 16:35 39.20826 -0.18804 32065 ft 528 kts 109°
2026-05-04 16:35 39.17934 -0.05207 32858 ft 528 kts 109°
2026-05-04 16:36 39.15017 0.08443 32874 ft 523 kts 110°
2026-05-04 16:37 39.12108 0.21979 32879 ft 521 kts 110°
2026-05-04 16:38 39.08217 0.39952 32900 ft 521 kts 109°
2026-05-04 16:39 39.03315 0.62416 32897 ft 524 kts 109°
2026-05-04 16:40 38.99351 0.80468 32902 ft 525 kts 109°
2026-05-04 16:41 38.94367 1.02978 32919 ft 525 kts 109°
2026-05-04 16:43 38.89306 1.25510 32946 ft 525 kts 109°
2026-05-04 16:43 38.86240 1.38999 32931 ft 524 kts 111°
2026-05-04 16:45 38.79426 1.65551 32933 ft 522 kts 111°
2026-05-04 16:46 38.73773 1.87623 32938 ft 522 kts 111°
2026-05-04 16:47 38.69206 2.05299 32942 ft 523 kts 111°
2026-05-04 16:48 38.64075 2.22655 32950 ft 519 kts 120°
2026-05-04 16:49 38.57794 2.39218 32952 ft 520 kts 119°
2026-05-04 16:50 38.51567 2.55896 32956 ft 520 kts 119°
2026-05-04 16:51 38.46887 2.68401 32968 ft 520 kts 119°
2026-05-04 16:52 38.40638 2.85034 32963 ft 520 kts 119°
2026-05-04 16:53 38.35966 2.97431 32968 ft 519 kts 119°
2026-05-04 16:54 38.29712 3.13990 32977 ft 519 kts 118°
2026-05-04 16:55 38.22010 3.39821 32979 ft 520 kts 114°
2026-05-04 16:56 38.15395 3.61207 32985 ft 519 kts 115°
2026-05-04 16:57 38.11380 3.74000 32989 ft 520 kts 115°
2026-05-04 16:58 38.06026 3.91035 32990 ft 520 kts 115°
2026-05-04 17:00 37.97961 4.16494 32992 ft 519 kts 114°
2026-05-04 17:01 37.91654 4.36246 32990 ft 518 kts 115°
2026-05-04 17:02 37.86223 4.53147 32996 ft 518 kts 115°
2026-05-04 17:03 37.82130 4.65816 32992 ft 519 kts 115°
2026-05-04 17:03 37.78015 4.78500 32998 ft 519 kts 115°
2026-05-04 17:04 37.72530 4.95323 32998 ft 519 kts 115°
2026-05-04 17:05 37.67259 5.12312 33003 ft 520 kts 112°
2026-05-04 17:06 37.63500 5.25141 33004 ft 519 kts 113°
2026-05-04 17:07 37.60113 5.36477 33012 ft 519 kts 113°
2026-05-04 17:07 37.57118 5.46413 33006 ft 518 kts 113°
2026-05-04 17:08 37.53270 5.59139 33016 ft 518 kts 113°
2026-05-04 17:09 37.50702 5.67604 33016 ft 518 kts 113°
2026-05-04 17:09 37.48143 5.76014 33026 ft 518 kts 114°
2026-05-04 17:10 37.41675 5.97156 33016 ft 517 kts 114°
2026-05-04 17:11 37.39081 6.05591 33018 ft 517 kts 114°
2026-05-04 17:12 37.35182 6.18220 33016 ft 516 kts 114°
2026-05-04 17:13 37.28677 6.39169 33013 ft 513 kts 114°
2026-05-04 17:14 37.23480 6.55796 33012 ft 513 kts 114°
2026-05-04 17:15 37.19553 6.68291 33023 ft 514 kts 114°
2026-05-04 17:16 37.14280 6.84988 33018 ft 516 kts 115°
2026-05-04 17:17 37.08958 7.01741 33010 ft 518 kts 115°
2026-05-04 17:18 37.03599 7.18515 33016 ft 519 kts 115°
2026-05-04 17:19 36.98221 7.35251 33012 ft 520 kts 115°
2026-05-04 17:20 36.92793 7.52047 33023 ft 521 kts 115°
2026-05-04 17:20 36.88700 7.64648 33009 ft 522 kts 115°
2026-05-04 17:21 36.83816 7.81758 33026 ft 528 kts 102°
2026-05-04 17:22 36.83097 7.90882 33023 ft 530 kts 90°
2026-05-04 17:23 36.83310 8.08666 33021 ft 531 kts 90°
2026-05-04 17:24 36.83373 8.22479 33023 ft 530 kts 90°
2026-05-04 17:25 36.83398 8.40872 33020 ft 529 kts 90°
2026-05-04 17:26 36.83405 8.59230 33034 ft 528 kts 90°
2026-05-04 17:27 36.82355 8.81991 33038 ft 526 kts 96°
2026-05-04 17:28 36.81124 9.00187 33039 ft 526 kts 95°
2026-05-04 17:29 36.79299 9.27458 33017 ft 526 kts 95°
2026-05-04 17:31 36.77725 9.50182 33008 ft 526 kts 95°
2026-05-04 17:32 36.76447 9.68192 33006 ft 527 kts 96°
2026-05-04 17:33 36.75127 9.86395 33008 ft 527 kts 96°
2026-05-04 17:34 36.73785 10.04518 33022 ft 526 kts 96°
2026-05-04 17:35 36.72064 10.27234 33021 ft 526 kts 96°
2026-05-04 17:36 36.71364 10.36305 33034 ft 526 kts 96°
2026-05-04 17:36 36.70656 10.45389 33029 ft 526 kts 96°
2026-05-04 17:37 36.69943 10.54458 33042 ft 526 kts 96°
2026-05-04 17:37 36.69222 10.63529 33052 ft 526 kts 96°
2026-05-04 17:38 36.68495 10.72589 33056 ft 526 kts 96°
2026-05-04 17:38 36.67759 10.81668 33053 ft 526 kts 96°
2026-05-04 17:39 36.66650 10.95203 33067 ft 526 kts 96°
2026-05-04 17:39 36.65899 11.04261 33068 ft 526 kts 96°
2026-05-04 17:40 36.65142 11.13308 33067 ft 525 kts 96°
2026-05-04 17:40 36.64376 11.22370 33070 ft 525 kts 96°
2026-05-04 17:41 36.63606 11.31408 33079 ft 525 kts 96°
2026-05-04 17:41 36.62829 11.40459 33080 ft 525 kts 96°
2026-05-04 17:42 36.62219 11.46150 33077 ft 525 kts 102°
2026-05-04 17:42 36.60236 11.54822 33089 ft 523 kts 112°
2026-05-04 17:43 36.57219 11.63047 33091 ft 522 kts 117°
2026-05-04 17:43 36.54098 11.71206 33085 ft 522 kts 116°
2026-05-04 17:44 36.51134 11.79464 33091 ft 523 kts 111°
2026-05-04 17:44 36.49146 11.88157 33089 ft 524 kts 99°
2026-05-04 17:45 36.48039 11.97106 33106 ft 524 kts 98°
2026-05-04 17:45 36.46975 12.06074 33098 ft 525 kts 98°
2026-05-04 17:46 36.45875 12.14977 33102 ft 525 kts 98°
2026-05-04 17:46 36.44736 12.23930 33110 ft 525 kts 98°
2026-05-04 17:47 36.43580 12.32903 33112 ft 525 kts 98°
2026-05-04 17:47 36.42421 12.41861 33110 ft 525 kts 98°
2026-05-04 17:48 36.41265 12.50759 33113 ft 525 kts 98°
2026-05-04 17:48 36.40097 12.59702 33116 ft 525 kts 98°
2026-05-04 17:49 36.38923 12.68638 33116 ft 525 kts 98°
2026-05-04 17:49 36.37741 12.77578 33119 ft 524 kts 98°
2026-05-04 17:50 36.36554 12.86500 33123 ft 524 kts 98°
2026-05-04 17:50 36.35362 12.95410 33121 ft 523 kts 98°
2026-05-04 17:51 36.34163 13.04320 33129 ft 523 kts 98°
2026-05-04 17:51 36.32959 13.13212 33134 ft 523 kts 98°
2026-05-04 17:52 36.31749 13.22097 33131 ft 523 kts 98°
2026-05-04 17:52 36.30539 13.30935 33135 ft 523 kts 98°
2026-05-04 17:53 36.29315 13.39822 33135 ft 523 kts 99°
2026-05-04 17:53 36.28084 13.48715 33135 ft 523 kts 99°
2026-05-04 17:54 36.26847 13.57597 33139 ft 523 kts 99°
2026-05-04 17:54 36.25601 13.66495 33145 ft 524 kts 99°
2026-05-04 17:55 36.24348 13.75391 33142 ft 524 kts 99°
2026-05-04 17:55 36.23095 13.84241 33146 ft 525 kts 99°
2026-05-04 17:56 36.21828 13.93137 33142 ft 525 kts 99°
2026-05-04 17:56 36.20552 14.02047 33145 ft 525 kts 99°
2026-05-04 17:57 36.19269 14.10958 33146 ft 526 kts 99°
2026-05-04 17:57 36.17980 14.19862 33150 ft 526 kts 99°
2026-05-04 17:58 36.16683 14.28768 33151 ft 526 kts 99°
2026-05-04 17:58 36.15379 14.37679 33152 ft 526 kts 99°
2026-05-04 17:59 36.14068 14.46592 33153 ft 526 kts 99°
2026-05-04 18:00 36.12098 14.59893 33156 ft 526 kts 99°
2026-05-04 18:00 36.10771 14.68794 33153 ft 526 kts 99°
2026-05-04 18:01 36.09437 14.77693 33154 ft 526 kts 99°
2026-05-04 18:01 36.08098 14.86579 33156 ft 526 kts 99°
2026-05-04 18:02 36.06074 14.99924 33161 ft 526 kts 99°
2026-05-04 18:02 36.04717 15.08813 33160 ft 526 kts 99°
2026-05-04 18:03 36.03352 15.17706 33159 ft 527 kts 99°
2026-05-04 18:03 36.01981 15.26595 33159 ft 527 kts 99°
2026-05-04 18:04 36.00611 15.35431 33162 ft 527 kts 99°
2026-05-04 18:05 35.98530 15.48778 33161 ft 528 kts 99°
2026-05-04 18:05 35.97133 15.57681 33168 ft 528 kts 98°
2026-05-04 18:06 35.95084 15.71004 33168 ft 529 kts 98°
2026-05-04 18:06 35.93764 15.79933 33168 ft 529 kts 98°
2026-05-04 18:07 35.92432 15.88876 33169 ft 530 kts 98°
2026-05-04 18:07 35.91084 15.97815 33170 ft 530 kts 98°
2026-05-04 18:08 35.89722 16.06772 33176 ft 531 kts 98°
2026-05-04 18:08 35.88354 16.15725 33176 ft 531 kts 98°
2026-05-04 18:09 35.85597 16.33639 33174 ft 532 kts 98°
2026-05-04 18:10 35.84215 16.42547 33179 ft 532 kts 98°
2026-05-04 18:10 35.82819 16.51502 33174 ft 532 kts 98°
2026-05-04 18:11 35.81415 16.60461 33172 ft 533 kts 98°
2026-05-04 18:11 35.80000 16.69442 33179 ft 533 kts 98°
2026-05-04 18:12 35.78822 16.76886 33175 ft 533 kts 98°
2026-05-04 18:12 35.77398 16.85847 33181 ft 533 kts 98°
2026-05-04 18:13 35.75965 16.94816 33183 ft 533 kts 98°
2026-05-04 18:14 35.73802 17.08271 33181 ft 534 kts 98°
2026-05-04 18:14 35.72353 17.17227 33186 ft 534 kts 98°
2026-05-04 18:15 35.69436 17.35125 33192 ft 533 kts 97°
2026-05-04 18:16 35.67978 17.44013 33183 ft 533 kts 97°
2026-05-04 18:16 35.66502 17.52958 33184 ft 533 kts 97°
2026-05-04 18:17 35.64280 17.66350 33191 ft 533 kts 97°
2026-05-04 18:18 35.62041 17.79745 33187 ft 533 kts 97°
2026-05-04 18:18 35.60541 17.88661 33188 ft 532 kts 97°
2026-05-04 18:19 35.58292 18.01957 33193 ft 532 kts 97°
2026-05-04 18:19 35.56779 18.10853 33192 ft 532 kts 97°
2026-05-04 18:20 35.55259 18.19745 33191 ft 532 kts 97°
2026-05-04 18:20 35.53731 18.28642 33188 ft 532 kts 97°
2026-05-04 18:21 35.52197 18.37529 33194 ft 532 kts 97°
2026-05-04 18:21 35.50659 18.46404 33188 ft 531 kts 97°
2026-05-04 18:22 35.50026 18.50044 33188 ft 531 kts 97°
2026-05-04 18:23 35.48834 18.56881 33190 ft 531 kts 97°
2026-05-04 18:23 35.48410 18.59304 33192 ft 531 kts 97°
2026-05-04 18:24 35.47518 18.64400 33195 ft 531 kts 97°
2026-05-04 18:24 35.46638 18.69412 33190 ft 531 kts 97°
2026-05-04 18:25 35.45078 18.78262 33190 ft 531 kts 97°
2026-05-04 18:25 35.43512 18.87114 33192 ft 531 kts 97°
2026-05-04 18:26 35.41939 18.95961 33189 ft 531 kts 97°
2026-05-04 18:26 35.40360 19.04801 33198 ft 531 kts 97°
2026-05-04 18:27 35.38774 19.13637 33197 ft 531 kts 97°
2026-05-04 18:27 35.37182 19.22472 33198 ft 531 kts 97°
2026-05-04 18:28 35.35583 19.31309 33184 ft 531 kts 97°
2026-05-04 18:28 35.33978 19.40137 33191 ft 531 kts 97°
2026-05-04 18:29 35.32366 19.48964 33187 ft 531 kts 97°
2026-05-04 18:29 35.30746 19.57797 33185 ft 531 kts 97°
2026-05-04 18:30 35.28316 19.70973 33188 ft 531 kts 97°
2026-05-04 18:31 35.26680 19.79800 33189 ft 532 kts 97°
2026-05-04 18:31 35.25037 19.88622 33187 ft 532 kts 97°
2026-05-04 18:32 35.23387 19.97444 33186 ft 532 kts 97°
2026-05-04 18:32 35.21730 20.06267 33183 ft 532 kts 98°
2026-05-04 18:33 35.20065 20.15093 33183 ft 533 kts 98°
2026-05-04 18:33 35.18394 20.23914 33181 ft 533 kts 98°
2026-05-04 18:34 35.16715 20.32737 33183 ft 533 kts 98°
2026-05-04 18:34 35.15031 20.41553 33182 ft 533 kts 98°
2026-05-04 18:35 35.13339 20.50377 33182 ft 533 kts 98°
2026-05-04 18:35 35.11644 20.59177 33182 ft 532 kts 98°
2026-05-04 18:36 35.09940 20.67983 33179 ft 532 kts 98°
2026-05-04 18:36 35.08244 20.76718 33182 ft 532 kts 98°
2026-05-04 18:37 35.06531 20.85500 33181 ft 532 kts 98°
2026-05-04 18:37 35.04813 20.94274 33180 ft 531 kts 98°
2026-05-04 18:38 35.03087 21.03051 33180 ft 531 kts 99°
2026-05-04 18:38 35.01358 21.11810 33178 ft 531 kts 99°
2026-05-04 18:39 34.99621 21.20571 33178 ft 531 kts 99°
2026-05-04 18:39 34.97879 21.29320 33182 ft 531 kts 99°
2026-05-04 18:40 34.96133 21.38059 33177 ft 530 kts 99°
2026-05-04 18:40 34.94382 21.46785 33179 ft 530 kts 99°
2026-05-04 18:41 34.92633 21.55465 33172 ft 530 kts 100°
2026-05-04 18:41 34.90871 21.64178 33179 ft 529 kts 100°
2026-05-04 18:42 34.89102 21.72891 33175 ft 529 kts 100°
2026-05-04 18:42 34.87330 21.81584 33174 ft 529 kts 100°
2026-05-04 18:43 34.85552 21.90269 33175 ft 528 kts 100°
2026-05-04 18:43 34.83768 21.98955 33172 ft 528 kts 100°
2026-05-04 18:44 34.81979 22.07627 33177 ft 528 kts 100°
2026-05-04 18:44 34.80184 22.16298 33172 ft 528 kts 101°
2026-05-04 18:45 34.78396 22.24903 33172 ft 528 kts 100°
2026-05-04 18:45 34.76590 22.33559 33167 ft 528 kts 101°
2026-05-04 18:46 34.74777 22.42216 33172 ft 529 kts 101°
2026-05-04 18:46 34.72957 22.50873 33179 ft 529 kts 101°
2026-05-04 18:47 34.71127 22.59542 33170 ft 529 kts 101°
2026-05-04 18:47 34.69290 22.68215 33170 ft 530 kts 101°
2026-05-04 18:48 34.67447 22.76884 33168 ft 531 kts 101°
2026-05-04 18:48 34.65595 22.85566 33168 ft 531 kts 101°
2026-05-04 18:49 34.63734 22.94256 33168 ft 532 kts 101°
2026-05-04 18:49 34.61393 23.02796 33171 ft 537 kts 111°
2026-05-04 18:50 34.58001 23.10897 33177 ft 539 kts 115°
2026-05-04 18:50 34.54522 23.18897 33173 ft 539 kts 115°
2026-05-04 18:51 34.51050 23.26982 33171 ft 540 kts 115°
2026-05-04 18:51 34.47597 23.35091 33169 ft 541 kts 115°
2026-05-04 18:52 34.44151 23.43183 33168 ft 541 kts 115°
2026-05-04 18:52 34.40709 23.51235 33167 ft 541 kts 115°
2026-05-04 18:53 34.37240 23.59325 33167 ft 541 kts 115°
2026-05-04 18:53 34.33767 23.67403 33169 ft 541 kts 115°
2026-05-04 18:54 34.30289 23.75476 33170 ft 542 kts 115°
2026-05-04 18:54 34.26797 23.83562 33166 ft 542 kts 115°
2026-05-04 18:55 34.23297 23.91648 33170 ft 543 kts 115°
2026-05-04 18:55 34.18028 24.03785 33170 ft 544 kts 116°
2026-05-04 18:56 34.14533 24.11813 33169 ft 544 kts 116°
2026-05-04 18:56 34.11005 24.19896 33169 ft 545 kts 116°
2026-05-04 18:57 34.07462 24.27997 33167 ft 545 kts 116°
2026-05-04 18:57 34.03914 24.36093 33165 ft 545 kts 116°
2026-05-04 18:58 33.99944 24.43832 33167 ft 547 kts 127°
2026-05-04 18:58 33.94895 24.50682 33158 ft 547 kts 138°
2026-05-04 18:59 33.89199 24.56762 33167 ft 547 kts 140°
2026-05-04 18:59 33.83471 24.62791 33159 ft 547 kts 140°
2026-05-04 19:00 33.77768 24.68853 33163 ft 547 kts 139°
2026-05-04 19:00 33.73043 24.73908 33162 ft 547 kts 139°
2026-05-04 19:01 33.67364 24.79985 33166 ft 547 kts 140°
2026-05-04 19:01 33.60753 24.87040 33160 ft 547 kts 140°
2026-05-04 19:02 33.55986 24.92113 33163 ft 546 kts 140°
2026-05-04 19:02 33.50298 24.98155 33169 ft 546 kts 140°
2026-05-04 19:03 33.44637 25.04159 33162 ft 547 kts 140°
2026-05-04 19:03 33.38940 25.10189 33168 ft 546 kts 140°
2026-05-04 19:04 33.33244 25.16207 33166 ft 546 kts 140°
2026-05-04 19:04 33.27552 25.22211 33166 ft 545 kts 140°
2026-05-04 19:05 33.21864 25.28199 33166 ft 545 kts 140°
2026-05-04 19:05 33.16171 25.34182 33166 ft 544 kts 140°
2026-05-04 19:06 33.10484 25.40148 33165 ft 544 kts 141°
2026-05-04 19:06 33.04801 25.46099 33164 ft 544 kts 141°
2026-05-04 19:07 32.99111 25.52047 33160 ft 543 kts 141°
2026-05-04 19:07 32.93426 25.57978 33166 ft 543 kts 141°
2026-05-04 19:08 32.87741 25.63899 33167 ft 543 kts 141°
2026-05-04 19:08 32.82090 25.69774 33160 ft 542 kts 141°
2026-05-04 19:09 32.76412 25.75668 33165 ft 542 kts 141°
2026-05-04 19:09 32.70726 25.81558 33169 ft 542 kts 141°
2026-05-04 19:10 32.65045 25.87435 33166 ft 541 kts 141°
2026-05-04 19:10 32.59366 25.93298 33161 ft 541 kts 141°
2026-05-04 19:11 32.53680 25.99158 33160 ft 540 kts 141°
2026-05-04 19:11 32.48002 26.04999 33162 ft 540 kts 141°
2026-05-04 19:12 32.39493 26.13735 33164 ft 539 kts 141°
2026-05-04 19:13 32.33830 26.19537 33165 ft 538 kts 141°
2026-05-04 19:13 32.28194 26.25300 33159 ft 538 kts 142°
2026-05-04 19:14 32.22524 26.31088 33174 ft 537 kts 142°
2026-05-04 19:14 32.16860 26.36861 33171 ft 537 kts 142°
2026-05-04 19:15 32.11209 26.42610 33166 ft 536 kts 142°
2026-05-04 19:15 32.05553 26.48354 33168 ft 536 kts 142°
2026-05-04 19:16 31.99905 26.54081 33165 ft 535 kts 142°
2026-05-04 19:16 31.94263 26.59793 33166 ft 535 kts 142°
2026-05-04 19:17 31.88653 26.65463 33163 ft 534 kts 142°
2026-05-04 19:17 31.83006 26.71159 33165 ft 534 kts 142°
2026-05-04 19:18 31.77357 26.76849 33162 ft 534 kts 142°
2026-05-04 19:18 31.71718 26.82520 33164 ft 534 kts 142°
2026-05-04 19:19 31.66066 26.88193 33170 ft 534 kts 142°
2026-05-04 19:19 31.60425 26.93847 33170 ft 534 kts 142°
2026-05-04 19:20 31.54776 26.99500 33166 ft 534 kts 142°
2026-05-04 19:20 31.49128 27.05142 33167 ft 534 kts 142°
2026-05-04 19:21 31.43508 27.10748 33162 ft 534 kts 142°
2026-05-04 19:21 31.37834 27.16399 33158 ft 535 kts 143°
2026-05-04 19:22 31.32363 27.22325 33161 ft 539 kts 135°
2026-05-04 19:22 31.27758 27.29266 33163 ft 542 kts 125°
2026-05-04 19:23 31.23601 27.36642 33156 ft 543 kts 125°
2026-05-04 19:23 31.19398 27.43985 33164 ft 544 kts 126°
2026-05-04 19:24 31.15177 27.51243 33175 ft 544 kts 126°
2026-05-04 19:24 31.10898 27.58549 33161 ft 545 kts 127°
2026-05-04 19:25 31.06562 27.65801 33168 ft 545 kts 127°
2026-05-04 19:25 31.02218 27.73035 33159 ft 545 kts 127°
2026-05-04 19:26 30.97865 27.80293 33167 ft 546 kts 128°
2026-05-04 19:26 30.93511 27.87553 33164 ft 547 kts 128°
2026-05-04 19:27 30.89140 27.94830 33167 ft 548 kts 128°
2026-05-04 19:27 30.84763 28.02101 33168 ft 549 kts 128°
2026-05-04 19:28 30.80397 28.09340 33165 ft 550 kts 128°
2026-05-04 19:28 30.75990 28.16635 33161 ft 552 kts 128°
2026-05-04 19:29 30.71568 28.23940 33160 ft 553 kts 128°
2026-05-04 19:29 30.67121 28.31273 33597 ft 555 kts 129°
2026-05-04 19:29 30.64898 28.34934 34001 ft 553 kts 129°
2026-05-04 19:30 30.62684 28.38578 34363 ft 552 kts 129°
2026-05-04 19:30 30.60469 28.42221 34699 ft 551 kts 129°
2026-05-04 19:30 30.58257 28.45855 35041 ft 549 kts 129°
2026-05-04 19:30 30.56053 28.49470 35189 ft 551 kts 129°
2026-05-04 19:31 30.53832 28.53108 35159 ft 552 kts 129°
2026-05-04 19:31 30.49437 28.60304 35152 ft 548 kts 129°
2026-05-04 19:32 30.45025 28.67514 35156 ft 547 kts 129°
2026-05-04 19:32 30.40619 28.74700 35146 ft 546 kts 130°
2026-05-04 19:33 30.36218 28.81865 35152 ft 546 kts 130°
2026-05-04 19:33 30.31811 28.89027 35133 ft 546 kts 130°
2026-05-04 19:34 30.27395 28.96192 35133 ft 547 kts 130°
2026-05-04 19:34 30.22974 29.03355 35125 ft 548 kts 130°
2026-05-04 19:35 30.18541 29.10524 35127 ft 548 kts 130°
2026-05-04 19:35 30.14128 29.17638 35119 ft 548 kts 130°
2026-05-04 19:36 30.09701 29.24828 35119 ft 549 kts 129°
2026-05-04 19:36 30.05342 29.32077 35115 ft 550 kts 129°
2026-05-04 19:37 30.00984 29.39335 35114 ft 550 kts 129°
2026-05-04 19:37 29.96617 29.46564 35115 ft 549 kts 129°
2026-05-04 19:38 29.92230 29.53800 35115 ft 549 kts 130°
2026-05-04 19:38 29.87867 29.60978 35113 ft 549 kts 130°
2026-05-04 19:39 29.83480 29.68188 35112 ft 549 kts 130°
2026-05-04 19:39 29.79087 29.75394 35111 ft 549 kts 130°
2026-05-04 19:40 29.74699 29.82581 35103 ft 549 kts 130°
2026-05-04 19:40 29.70306 29.89763 35110 ft 549 kts 130°
2026-05-04 19:41 29.65911 29.96936 35108 ft 549 kts 130°
2026-05-04 19:41 29.61513 30.04101 35102 ft 549 kts 130°
2026-05-04 19:42 29.57137 30.11218 35107 ft 548 kts 130°
2026-05-04 19:42 29.52734 30.18366 35106 ft 548 kts 130°
2026-05-04 19:43 29.48326 30.25511 35105 ft 548 kts 131°
2026-05-04 19:43 29.43918 30.32646 35102 ft 548 kts 131°
2026-05-04 19:44 29.39437 30.39698 35106 ft 544 kts 135°
2026-05-04 19:44 29.34337 30.45997 35107 ft 537 kts 141°
2026-05-04 19:45 29.29100 30.52106 35101 ft 537 kts 141°
2026-05-04 19:45 29.23885 30.58241 35103 ft 537 kts 141°
2026-05-04 19:46 29.18730 30.64359 35100 ft 537 kts 141°
2026-05-04 19:46 29.13544 30.70519 35098 ft 537 kts 141°
2026-05-04 19:47 29.08356 30.76668 35100 ft 537 kts 141°
2026-05-04 19:47 29.03161 30.82810 35098 ft 536 kts 141°
2026-05-04 19:48 28.97972 30.88935 35100 ft 536 kts 141°
2026-05-04 19:48 28.92788 30.95045 35099 ft 535 kts 141°
2026-05-04 19:49 28.87608 31.01141 35104 ft 535 kts 141°
2026-05-04 19:49 28.82459 31.07192 35103 ft 534 kts 141°
2026-05-04 19:50 28.77279 31.13271 35117 ft 534 kts 141°
2026-05-04 19:50 28.72123 31.19314 35109 ft 533 kts 141°
2026-05-04 19:51 28.67333 31.25007 35113 ft 534 kts 139°
2026-05-04 19:51 28.63189 31.30240 35114 ft 534 kts 138°
2026-05-04 19:52 28.58254 31.36562 35115 ft 534 kts 138°
2026-05-04 19:52 28.53300 31.42840 35118 ft 532 kts 139°
2026-05-04 19:53 28.48328 31.49086 35120 ft 532 kts 139°
2026-05-04 19:53 28.43358 31.55308 35127 ft 531 kts 139°
2026-05-04 19:54 28.38396 31.61516 35120 ft 531 kts 139°
2026-05-04 19:54 28.33430 31.67724 35116 ft 530 kts 139°
2026-05-04 19:55 28.28475 31.73911 35119 ft 529 kts 139°
2026-05-04 19:55 28.23514 31.80095 35125 ft 528 kts 139°
2026-05-04 19:56 28.18596 31.86215 35124 ft 528 kts 139°
2026-05-04 19:56 28.13653 31.92358 35119 ft 527 kts 139°
2026-05-04 19:57 28.08712 31.98493 35120 ft 527 kts 139°
2026-05-04 19:57 28.03897 32.04758 35127 ft 531 kts 133°
2026-05-04 19:58 27.99923 32.11891 35129 ft 539 kts 124°
2026-05-04 19:58 27.96395 32.19376 35121 ft 539 kts 123°
2026-05-04 19:59 27.92878 32.26809 35109 ft 539 kts 124°
2026-05-04 19:59 27.89299 32.34253 35103 ft 538 kts 124°
2026-05-04 20:00 27.85705 32.41667 35103 ft 537 kts 124°
2026-05-04 20:00 27.82109 32.49072 35101 ft 537 kts 124°
2026-05-04 20:01 27.78517 32.56463 35106 ft 537 kts 124°
2026-05-04 20:01 27.74921 32.63853 35097 ft 536 kts 124°
2026-05-04 20:02 27.71324 32.71233 35079 ft 536 kts 124°
2026-05-04 20:02 27.67746 32.78562 35077 ft 536 kts 124°
2026-05-04 20:03 27.64144 32.85925 35070 ft 536 kts 124°
2026-05-04 20:03 27.60541 32.93277 35066 ft 534 kts 124°
2026-05-04 20:04 27.56944 33.00606 35060 ft 534 kts 124°
2026-05-04 20:04 27.53346 33.07925 35043 ft 533 kts 125°
2026-05-04 20:05 27.49774 33.15177 35053 ft 533 kts 125°
2026-05-04 20:05 27.46174 33.22472 35040 ft 533 kts 125°
2026-05-04 20:06 27.42571 33.29765 35037 ft 533 kts 125°
2026-05-04 20:06 27.38960 33.37062 35032 ft 533 kts 125°
2026-05-04 20:07 27.35344 33.44354 35026 ft 533 kts 125°
2026-05-04 20:07 27.31729 33.51635 35021 ft 534 kts 126°
2026-05-04 20:08 27.28101 33.58933 35019 ft 534 kts 126°
2026-05-04 20:08 27.24470 33.66228 35019 ft 535 kts 126°
2026-05-04 20:09 27.20828 33.73535 35018 ft 536 kts 126°
2026-05-04 20:09 27.17276 33.80918 35029 ft 540 kts 121°
2026-05-04 20:10 27.14446 33.88731 35023 ft 545 kts 117°
2026-05-04 20:10 27.11709 33.96653 35008 ft 545 kts 117°
2026-05-04 20:11 27.08912 34.04562 35000 ft 545 kts 118°
2026-05-04 20:11 27.06084 34.12449 34990 ft 545 kts 118°
2026-05-04 20:12 27.03255 34.20336 34980 ft 545 kts 118°
2026-05-04 20:12 27.00423 34.28230 34989 ft 545 kts 118°
2026-05-04 20:13 26.97596 34.36118 34982 ft 544 kts 118°
2026-05-04 20:13 26.94772 34.43986 34973 ft 543 kts 118°
2026-05-04 20:14 26.91946 34.51843 34979 ft 543 kts 118°
2026-05-04 20:14 26.89137 34.59632 34974 ft 542 kts 118°
2026-05-04 20:15 26.86311 34.67456 34980 ft 542 kts 118°
2026-05-04 20:15 26.83480 34.75275 34982 ft 542 kts 118°
2026-05-04 20:16 26.80643 34.83098 34982 ft 542 kts 118°
2026-05-04 20:16 26.77804 34.90914 34982 ft 542 kts 118°
2026-05-04 20:17 26.74948 34.98742 34981 ft 543 kts 118°
2026-05-04 20:17 26.72098 35.06512 34982 ft 543 kts 118°
2026-05-04 20:18 26.69226 35.14332 34977 ft 544 kts 118°
2026-05-04 20:18 26.66354 35.22145 34975 ft 544 kts 118°
2026-05-04 20:19 26.63470 35.29974 34972 ft 544 kts 118°
2026-05-04 20:19 26.60581 35.37803 34971 ft 545 kts 119°
2026-05-04 20:20 26.57684 35.45640 34967 ft 545 kts 119°
2026-05-04 20:20 26.54762 35.53452 34964 ft 545 kts 120°
2026-05-04 20:21 26.51794 35.61184 34956 ft 545 kts 120°
2026-05-04 20:21 26.47307 35.72843 34957 ft 545 kts 120°
2026-05-04 20:22 26.44325 35.80608 34957 ft 545 kts 120°
2026-05-04 20:22 26.41333 35.88390 34951 ft 545 kts 120°
2026-05-04 20:23 26.38343 35.96148 34950 ft 544 kts 120°
2026-05-04 20:23 26.35345 36.03910 34946 ft 544 kts 120°
2026-05-04 20:24 26.32345 36.11664 34944 ft 544 kts 120°
2026-05-04 20:24 26.29363 36.19355 34942 ft 545 kts 120°
2026-05-04 20:25 26.26349 36.27117 34939 ft 545 kts 120°
2026-05-04 20:25 26.23335 36.34863 34943 ft 545 kts 120°
2026-05-04 20:26 26.20315 36.42613 34939 ft 545 kts 120°
2026-05-04 20:26 26.17221 36.50318 34938 ft 541 kts 125°
2026-05-04 20:27 26.13638 36.57661 34942 ft 539 kts 127°
2026-05-04 20:27 26.09985 36.64942 34934 ft 540 kts 127°
2026-05-04 20:28 26.06351 36.72252 34939 ft 540 kts 127°
2026-05-04 20:28 26.02732 36.79587 34938 ft 541 kts 126°
2026-05-04 20:29 25.99113 36.86921 34944 ft 541 kts 127°
2026-05-04 20:29 25.95488 36.94248 34944 ft 541 kts 127°
2026-05-04 20:30 25.91861 37.01560 34941 ft 540 kts 127°
2026-05-04 20:30 25.88251 37.08829 34943 ft 540 kts 127°
2026-05-04 20:31 25.84615 37.16138 34941 ft 540 kts 127°
2026-05-04 20:31 25.80978 37.23439 34941 ft 539 kts 127°
2026-05-04 20:32 25.77375 37.30669 34947 ft 538 kts 127°
2026-05-04 20:32 25.73752 37.37941 34943 ft 538 kts 127°
2026-05-04 20:33 25.70132 37.45201 34975 ft 537 kts 127°
2026-05-04 20:33 25.66510 37.52449 34961 ft 537 kts 127°
2026-05-04 20:34 25.62883 37.59697 34978 ft 538 kts 127°
2026-05-04 20:34 25.59278 37.66890 34963 ft 536 kts 127°
2026-05-04 20:35 25.55659 37.74101 34947 ft 533 kts 127°
2026-05-04 20:35 25.52057 37.81266 34942 ft 531 kts 127°
2026-05-04 20:36 25.48458 37.88410 34936 ft 531 kts 127°
2026-05-04 20:36 25.44855 37.95550 34941 ft 531 kts 127°
2026-05-04 20:37 25.41239 38.02704 34927 ft 533 kts 127°
2026-05-04 20:37 25.37608 38.09880 34912 ft 535 kts 127°
2026-05-04 20:38 25.34001 38.17002 34911 ft 535 kts 127°
2026-05-04 20:38 25.30357 38.24183 34916 ft 536 kts 127°
2026-05-04 20:39 25.26706 38.31364 34919 ft 536 kts 127°
2026-05-04 20:39 25.23043 38.38562 34927 ft 536 kts 128°
2026-05-04 20:40 25.20004 38.44524 34929 ft 535 kts 128°
2026-05-04 20:40 25.15758 38.52842 34934 ft 534 kts 128°
2026-05-04 20:41 25.12701 38.58824 34949 ft 533 kts 128°
2026-05-04 20:41 25.09054 38.65950 34936 ft 533 kts 128°
2026-05-04 20:42 25.05411 38.73063 34952 ft 531 kts 128°
2026-05-04 20:42 25.01794 38.80114 34956 ft 531 kts 128°
2026-05-04 20:43 24.98153 38.87201 34957 ft 531 kts 128°
2026-05-04 20:43 24.94503 38.94284 34958 ft 531 kts 128°
2026-05-04 20:44 24.90823 39.01368 34962 ft 532 kts 128°
2026-05-04 20:44 24.87140 39.08449 34965 ft 533 kts 128°
2026-05-04 20:45 24.83449 39.15545 34965 ft 534 kts 128°
2026-05-04 20:45 24.79747 39.22652 34968 ft 535 kts 128°
2026-05-04 20:46 24.76062 39.29716 34973 ft 537 kts 128°
2026-05-04 20:46 24.72333 39.36855 34975 ft 539 kts 128°
2026-05-04 20:47 24.68588 39.44020 34983 ft 541 kts 127°
2026-05-04 20:47 24.64842 39.51179 34975 ft 538 kts 128°
2026-05-04 20:48 24.61121 39.58284 34969 ft 533 kts 127°
2026-05-04 20:48 24.57462 39.65297 34991 ft 534 kts 125°
2026-05-04 20:49 24.54743 39.73002 34999 ft 549 kts 111°
2026-05-04 20:49 24.53469 39.81404 35005 ft 559 kts 100°
2026-05-04 20:50 24.52761 39.89876 34985 ft 561 kts 99°
2026-05-04 20:50 24.52025 39.98390 34980 ft 561 kts 100°
2026-05-04 20:51 24.51213 40.06904 34966 ft 561 kts 101°
2026-05-04 20:51 24.50371 40.15426 34963 ft 560 kts 101°
2026-05-04 20:52 24.49531 40.23929 34956 ft 559 kts 101°
2026-05-04 20:52 24.48695 40.32411 34961 ft 559 kts 101°
2026-05-04 20:53 24.47855 40.40888 34967 ft 558 kts 101°
2026-05-04 20:53 24.47016 40.49292 34963 ft 557 kts 101°
2026-05-04 20:54 24.46168 40.57753 34963 ft 557 kts 101°
2026-05-04 20:54 24.45318 40.66193 34967 ft 556 kts 101°
2026-05-04 20:55 24.44469 40.74651 34968 ft 556 kts 101°
2026-05-04 20:55 24.43623 40.83039 34965 ft 556 kts 101°
2026-05-04 20:56 24.42768 40.91473 34970 ft 556 kts 101°
2026-05-04 20:56 24.41906 40.99912 34976 ft 555 kts 101°
2026-05-04 20:57 24.41043 41.08327 34973 ft 555 kts 101°
2026-05-04 20:57 24.40161 41.16737 34976 ft 555 kts 101°
2026-05-04 20:58 24.39276 41.25086 34979 ft 554 kts 101°
2026-05-04 20:58 24.38382 41.33495 34981 ft 554 kts 101°
2026-05-04 20:59 24.37486 41.41894 34981 ft 554 kts 101°
2026-05-04 20:59 24.36585 41.50300 34979 ft 554 kts 101°
2026-05-04 21:00 24.35679 41.58702 34983 ft 554 kts 101°
2026-05-04 21:00 24.34770 41.67095 34977 ft 554 kts 101°
2026-05-04 21:01 24.33862 41.75435 34979 ft 554 kts 101°
2026-05-04 21:01 24.32771 41.83772 34975 ft 550 kts 107°
2026-05-04 21:02 24.30746 41.91799 34977 ft 545 kts 112°
2026-05-04 21:02 24.28566 41.99757 34983 ft 545 kts 112°
2026-05-04 21:03 24.26419 42.07737 34971 ft 546 kts 112°
2026-05-04 21:03 24.24301 42.15744 34989 ft 547 kts 111°
2026-05-04 21:04 24.22189 42.23742 34971 ft 547 kts 111°
2026-05-04 21:04 24.20065 42.31749 34982 ft 547 kts 111°
2026-05-04 21:05 24.17951 42.39691 34972 ft 547 kts 111°
2026-05-04 21:05 24.15816 42.47693 34972 ft 546 kts 111°
2026-05-04 21:06 24.13683 42.55671 34978 ft 545 kts 111°
2026-05-04 21:06 24.11549 42.63631 34973 ft 545 kts 111°
2026-05-04 21:07 24.09423 42.71543 34970 ft 544 kts 111°
2026-05-04 21:07 24.07286 42.79484 34971 ft 544 kts 111°
2026-05-04 21:08 24.05146 42.87419 34973 ft 543 kts 111°
2026-05-04 21:08 24.03006 42.95336 34976 ft 543 kts 111°
2026-05-04 21:09 24.00864 43.03250 34974 ft 543 kts 111°
2026-05-04 21:09 23.98720 43.11163 34975 ft 542 kts 111°
2026-05-04 21:10 23.96585 43.19025 34976 ft 542 kts 111°
2026-05-04 21:10 23.94430 43.26941 34976 ft 542 kts 111°
2026-05-04 21:11 23.92274 43.34841 34978 ft 543 kts 111°
2026-05-04 21:11 23.90109 43.42758 34971 ft 543 kts 111°
2026-05-04 21:12 23.87943 43.50664 34965 ft 543 kts 111°
2026-05-04 21:12 23.85771 43.58574 34959 ft 543 kts 111°
2026-05-04 21:13 23.83596 43.66474 34966 ft 543 kts 111°
2026-05-04 21:13 23.81420 43.74366 34956 ft 543 kts 111°
2026-05-04 21:14 23.79239 43.82260 34946 ft 543 kts 111°
2026-05-04 21:14 23.77342 43.90268 34942 ft 547 kts 103°
2026-05-04 21:15 23.76560 43.98511 34945 ft 550 kts 97°
2026-05-04 21:15 23.76026 44.06849 34937 ft 550 kts 97°
2026-05-04 21:16 23.75448 44.15178 34931 ft 550 kts 97°
2026-05-04 21:16 23.74824 44.23488 34936 ft 549 kts 98°
2026-05-04 21:17 23.74184 44.31806 34931 ft 549 kts 98°
2026-05-04 21:17 23.73546 44.40103 34933 ft 548 kts 98°
2026-05-04 21:18 23.72908 44.48379 34929 ft 546 kts 98°
2026-05-04 21:18 23.72268 44.56628 34932 ft 545 kts 98°
2026-05-04 21:19 23.71625 44.64850 34930 ft 543 kts 98°
2026-05-04 21:19 23.70984 44.73002 34926 ft 541 kts 98°
2026-05-04 21:20 23.70336 44.81173 34930 ft 540 kts 98°
2026-05-04 21:20 23.69685 44.89334 34928 ft 539 kts 98°
2026-05-04 21:21 23.69027 44.97491 34923 ft 539 kts 98°
2026-05-04 21:21 23.68365 45.05641 34921 ft 539 kts 98°
2026-05-04 21:22 23.67700 45.13794 34919 ft 540 kts 98°
2026-05-04 21:22 23.67030 45.21953 34916 ft 540 kts 98°
2026-05-04 21:23 23.66356 45.30122 34909 ft 541 kts 98°
2026-05-04 21:23 23.65680 45.38293 34910 ft 541 kts 98°
2026-05-04 21:24 23.65003 45.46416 34900 ft 541 kts 98°
2026-05-04 21:24 23.64313 45.54641 34893 ft 541 kts 98°
2026-05-04 21:25 23.63629 45.62762 34889 ft 540 kts 98°
2026-05-04 21:25 23.62937 45.70919 34890 ft 539 kts 98°
2026-05-04 21:26 23.62243 45.79056 34884 ft 539 kts 98°
2026-05-04 21:26 23.61546 45.87184 34885 ft 538 kts 98°
2026-05-04 21:27 23.60846 45.95298 34887 ft 537 kts 98°
2026-05-04 21:27 23.60142 46.03412 34890 ft 537 kts 98°
2026-05-04 21:28 23.59433 46.11530 34896 ft 537 kts 98°
2026-05-04 21:28 23.58841 46.18267 34907 ft 537 kts 98°
2026-05-04 21:29 23.58126 46.26359 34901 ft 537 kts 98°
2026-05-04 21:29 23.57291 46.35769 34899 ft 536 kts 98°
2026-05-04 21:30 23.56569 46.43849 34900 ft 534 kts 98°
2026-05-04 21:30 23.55844 46.51912 34902 ft 533 kts 98°
2026-05-04 21:31 23.54864 46.62613 34893 ft 533 kts 98°
2026-05-04 21:32 23.54121 46.70641 34893 ft 532 kts 98°
2026-05-04 21:32 23.53375 46.78659 34887 ft 531 kts 98°
2026-05-04 21:33 23.52627 46.86663 34889 ft 531 kts 98°
2026-05-04 21:33 23.51875 46.94679 34876 ft 530 kts 98°
2026-05-04 21:34 23.51120 47.02668 34859 ft 530 kts 98°
2026-05-04 21:34 23.50362 47.10653 34861 ft 529 kts 98°
2026-05-04 21:35 23.49601 47.18626 34854 ft 529 kts 98°
2026-05-04 21:35 23.48836 47.26590 34859 ft 528 kts 98°
2026-05-04 21:36 23.48074 47.34489 34856 ft 527 kts 98°
2026-05-04 21:36 23.47303 47.42441 34863 ft 527 kts 98°
2026-05-04 21:37 23.46529 47.50380 34858 ft 527 kts 98°
2026-05-04 21:37 23.45753 47.58326 34848 ft 528 kts 98°
2026-05-04 21:38 23.44978 47.66283 34845 ft 528 kts 98°
2026-05-04 21:38 23.44198 47.74245 34845 ft 529 kts 98°
2026-05-04 21:39 23.43412 47.82222 34843 ft 530 kts 98°
2026-05-04 21:39 23.42621 47.90212 34845 ft 531 kts 98°
2026-05-04 21:40 23.41824 47.98211 34830 ft 532 kts 98°
2026-05-04 21:40 23.41022 48.06226 34830 ft 532 kts 98°
2026-05-04 21:41 23.40216 48.14232 34828 ft 533 kts 98°
2026-05-04 21:41 23.39410 48.22201 34823 ft 533 kts 98°
2026-05-04 21:42 23.38595 48.30229 34819 ft 533 kts 98°
2026-05-04 21:42 23.37962 48.38272 34818 ft 534 kts 94°
2026-05-04 21:43 23.37661 48.46351 34818 ft 534 kts 93°
2026-05-04 21:43 23.37382 48.54430 34828 ft 534 kts 94°
2026-05-04 21:44 23.37068 48.62500 34814 ft 533 kts 94°
2026-05-04 21:44 23.36733 48.70562 34825 ft 533 kts 94°
2026-05-04 21:45 23.36394 48.78611 34813 ft 532 kts 94°
2026-05-04 21:45 23.36054 48.86658 34798 ft 532 kts 94°
2026-05-04 21:46 23.35711 48.94689 34813 ft 531 kts 94°
2026-05-04 21:46 23.35365 49.02720 34808 ft 531 kts 94°
2026-05-04 21:47 23.35013 49.10740 34801 ft 530 kts 94°
2026-05-04 21:47 23.34655 49.18756 34798 ft 530 kts 94°
2026-05-04 21:48 23.34294 49.26758 34798 ft 530 kts 94°
2026-05-04 21:48 23.33930 49.34724 34802 ft 530 kts 94°
2026-05-04 21:49 23.33561 49.42738 34796 ft 530 kts 94°
2026-05-04 21:49 23.33188 49.50753 34799 ft 530 kts 94°
2026-05-04 21:50 23.32810 49.58769 34793 ft 530 kts 94°
2026-05-04 21:50 23.32429 49.66781 34809 ft 530 kts 94°
2026-05-04 21:51 23.32045 49.74751 34794 ft 530 kts 94°
2026-05-04 21:51 23.31656 49.82759 34803 ft 530 kts 94°
2026-05-04 21:52 23.31262 49.90773 34807 ft 530 kts 94°
2026-05-04 21:52 23.30864 49.98778 34805 ft 530 kts 94°
2026-05-04 21:53 23.30463 50.06785 34795 ft 530 kts 94°
2026-05-04 21:53 23.30057 50.14786 34803 ft 529 kts 94°
2026-05-04 21:54 23.29648 50.22785 34807 ft 529 kts 94°
2026-05-04 21:54 23.29236 50.30743 34806 ft 529 kts 94°
2026-05-04 21:55 23.28819 50.38738 34795 ft 529 kts 94°
2026-05-04 21:55 23.28397 50.46740 34806 ft 530 kts 94°
2026-05-04 21:56 23.27971 50.54740 34797 ft 530 kts 94°
2026-05-04 21:56 23.27541 50.62742 34798 ft 530 kts 94°
2026-05-04 21:57 23.27108 50.70735 34789 ft 530 kts 95°
2026-05-04 21:57 23.26670 50.78730 34795 ft 530 kts 95°
2026-05-04 21:58 23.26229 50.86726 34789 ft 529 kts 95°
2026-05-04 21:58 23.25784 50.94715 34790 ft 529 kts 95°
2026-05-04 21:59 23.25513 51.02688 34780 ft 527 kts 84°
2026-05-04 21:59 23.26363 51.06552 34806 ft 526 kts 66°
2026-05-04 21:59 23.28101 51.09967 34806 ft 523 kts 51°
2026-05-04 21:59 23.30593 51.12809 34805 ft 518 kts 36°
2026-05-04 22:00 23.33582 51.14952 34803 ft 514 kts 24°
2026-05-04 22:00 23.36865 51.16440 34788 ft 509 kts 12°
2026-05-04 22:00 23.40309 51.17223 34743 ft 502 kts
2026-05-04 22:00 23.43774 51.17559 34525 ft 499 kts 359°
2026-05-04 22:01 23.47238 51.17685 34235 ft 499 kts 357°
2026-05-04 22:01 23.50724 51.17762 33949 ft 501 kts 357°
2026-05-04 22:01 23.54213 51.17871 33641 ft 502 kts 358°
2026-05-04 22:01 23.57710 51.18036 33290 ft 504 kts 359°
2026-05-04 22:02 23.61216 51.18250 32908 ft 506 kts 359°
2026-05-04 22:02 23.64733 51.18499 32534 ft 507 kts 360°
2026-05-04 22:02 23.68253 51.18763 32152 ft 509 kts
2026-05-04 22:02 23.71799 51.19035 31781 ft 510 kts
2026-05-04 22:03 23.75345 51.19305 31391 ft 511 kts
2026-05-04 22:03 23.78900 51.19572 30961 ft 513 kts
2026-05-04 22:03 23.82425 51.19834 30549 ft 514 kts
2026-05-04 22:03 23.86001 51.20098 30157 ft 515 kts
2026-05-04 22:04 23.89574 51.20361 29862 ft 513 kts
2026-05-04 22:04 23.93126 51.20623 29614 ft 510 kts
2026-05-04 22:04 23.96652 51.20884 29355 ft 506 kts
2026-05-04 22:04 24.00168 51.21143 28684 ft 504 kts
2026-05-04 22:05 24.03646 51.21400 28052 ft 498 kts
2026-05-04 22:05 24.07048 51.21652 27445 ft 493 kts
2026-05-04 22:05 24.10451 51.21903 26847 ft 487 kts
2026-05-04 22:05 24.13821 51.22152 26252 ft 482 kts
2026-05-04 22:06 24.17157 51.22398 25670 ft 478 kts
2026-05-04 22:06 24.20460 51.22642 25089 ft 474 kts
2026-05-04 22:06 24.23736 51.22884 24496 ft 470 kts
2026-05-04 22:06 24.26989 51.23125 23988 ft 466 kts
2026-05-04 22:07 24.30182 51.23480 23507 ft 459 kts
2026-05-04 22:07 24.33228 51.24546 22896 ft 459 kts 23°
2026-05-04 22:07 24.35997 51.26266 22325 ft 457 kts 34°
2026-05-04 22:07 24.38390 51.28526 21712 ft 452 kts 43°
2026-05-04 22:08 24.40603 51.30905 21098 ft 450 kts 44°
2026-05-04 22:08 24.42831 51.33304 20554 ft 448 kts 43°
2026-05-04 22:08 24.45067 51.35671 20019 ft 444 kts 43°
2026-05-04 22:08 24.47301 51.37998 19509 ft 441 kts 43°
2026-05-04 22:09 24.49526 51.40301 18991 ft 438 kts 43°
2026-05-04 22:09 24.51809 51.42502 18456 ft 435 kts 37°
2026-05-04 22:09 24.54274 51.44415 17918 ft 432 kts 32°
2026-05-04 22:09 24.56879 51.46033 17341 ft 428 kts 25°
2026-05-04 22:10 24.59552 51.47447 16806 ft 423 kts 24°
2026-05-04 22:10 24.62203 51.48831 16290 ft 419 kts 24°
2026-05-04 22:10 24.64816 51.50214 15778 ft 415 kts 24°
2026-05-04 22:10 24.67397 51.51600 15279 ft 411 kts 24°
2026-05-04 22:11 24.69098 51.52515 14937 ft 408 kts 24°
2026-05-04 22:11 24.71445 51.53693 14458 ft 405 kts 22°
2026-05-04 22:11 24.74021 51.54915 13940 ft 401 kts 21°
2026-05-04 22:12 24.76571 51.56128 13420 ft 397 kts 21°
2026-05-04 22:12 24.79072 51.57336 13119 ft 387 kts 21°
2026-05-04 22:12 24.81500 51.58414 12923 ft 362 kts 12°
2026-05-04 22:12 24.83887 51.58625 12761 ft 331 kts 351°
2026-05-04 22:13 24.86077 51.58068 12268 ft 317 kts 339°
2026-05-04 22:13 24.87989 51.57106 11723 ft 306 kts 327°
2026-05-04 22:13 24.89679 51.55643 11191 ft 297 kts 319°
2026-05-04 22:13 24.91215 51.54163 10660 ft 290 kts 319°
2026-05-04 22:14 24.92721 51.52733 10147 ft 283 kts 320°
2026-05-04 22:14 24.94202 51.51341 9635 ft 276 kts 320°
2026-05-04 22:14 24.95706 51.50074 9066 ft 270 kts 331°
2026-05-04 22:14 24.97400 51.49248 8584 ft 262 kts 338°
2026-05-04 22:15 24.98521 51.48785 8253 ft 259 kts 339°
2026-05-04 22:15 25.00259 51.48503 7740 ft 253 kts
2026-05-04 22:15 25.01840 51.49263 7358 ft 245 kts 31°
2026-05-04 22:15 25.03096 51.50486 6879 ft 239 kts 45°
2026-05-04 22:16 25.04090 51.51864 6733 ft 216 kts 48°
2026-05-04 22:16 25.05006 51.53205 6323 ft 223 kts 48°
2026-05-04 22:16 25.05923 51.54553 5843 ft 216 kts 48°
2026-05-04 22:16 25.06803 51.55843 5443 ft 206 kts 48°
2026-05-04 22:17 25.07658 51.57089 5057 ft 201 kts 47°
2026-05-04 22:17 25.08507 51.58318 4701 ft 200 kts 47°
2026-05-04 22:17 25.09345 51.59529 4328 ft 196 kts 47°
2026-05-04 22:17 25.10158 51.60701 3968 ft 194 kts 47°
2026-05-04 22:18 25.10972 51.61874 3605 ft 191 kts 47°
2026-05-04 22:18 25.11777 51.63034 3259 ft 189 kts 47°
2026-05-04 22:18 25.12576 51.64183 2915 ft 187 kts 45°
2026-05-04 22:18 25.13570 51.64973 2553 ft 170 kts
2026-05-04 22:19 25.14661 51.64885 2357 ft 152 kts 347°
2026-05-04 22:19 25.15715 51.64614 2119 ft 155 kts 345°
2026-05-04 22:19 25.16733 51.64306 2057 ft 150 kts 345°
2026-05-04 22:19 25.17688 51.63976 1984 ft 141 kts 341°
2026-05-04 22:20 25.18617 51.63589 1516 ft 145 kts 341°
2026-05-04 22:20 25.19522 51.63207 1227 ft 131 kts 339°
2026-05-04 22:20 25.20417 51.62806 1013 ft 142 kts 339°
2026-05-04 22:20 25.21326 51.62413 843 ft 139 kts 339°
2026-05-04 22:21 25.22199 51.62040 634 ft 143 kts 338°
2026-05-04 22:21 25.23110 51.61625 525 ft 142 kts 339°
2026-05-04 22:21 25.24029 51.61219 332 ft 144 kts 337°
2026-05-04 22:21 25.24957 51.60807 162 ft 145 kts 338°
2026-05-04 22:22 25.25884 51.60404 41 ft 133 kts 338°
2026-05-04 22:22 25.26634 51.60064 19 ft 95 kts 337°
2026-05-04 22:22 25.27079 51.59871 20 ft 42 kts 338°
2026-05-04 22:22 25.27261 51.59826 20 ft 18 kts
2026-05-04 22:23 25.27367 51.59839 23 ft 14 kts 11°
2026-05-04 22:23 25.27424 51.59862 28 ft 7 kts 55°
2026-05-04 22:23 25.27416 51.59911 27 ft 7 kts 125°
2026-05-04 22:23 25.27364 51.59947 30 ft 12 kts 154°
2026-05-04 22:24 25.27283 51.59987 27 ft 13 kts 156°
2026-05-04 22:24 25.27202 51.60027 29 ft 13 kts 155°
2026-05-04 22:24 25.27112 51.60064 27 ft 19 kts 161°
2026-05-04 22:24 25.26978 51.60118 29 ft 16 kts 158°
2026-05-04 22:25 25.26876 51.60164 26 ft 16 kts 157°
2026-05-04 22:25 25.26775 51.60212 25 ft 16 kts 157°
2026-05-04 22:25 25.26672 51.60255 27 ft 16 kts 159°